Retour au catalogue

SCOUT B DEB

LostUNKNOWN
NORAD 28797·DEBRIS·🇺🇸 United States

Lancé Aug 10, 1965 depuis Wallops Flight Facility

Loading…

Prochains Passages (prochaines 24 heures)

TLE

PériméSource: Space-Track

Époque: Jan 3, 2025, 12:14 UTC

1 28797U 65063G   25003.51037046  .00003408  00000-0  22033-1 0  9995
2 28797  69.1986  93.7784 0690288 326.0134  46.1766 11.97774305130181

Suivez SCOUT B DEB en temps réel avec AllMySat

Download on the App Store